Location: Alafon
(8.4500°N, 4.2333°E)
Time: 06:48:43
(UTC+00:00)

Vanguard 2 - Pass Details

Date: 10 August 2021
Orbit: 553 x 2937 km, 32.9° (Epoch: 24 September)

Event Time Altitude Azimuth Distance (km) Brightness Sun altitude
Rises 06:58:57 0° 321° (NW) 2,948 10.3 19.1°
Reaches altitude 10° 07:01:10 10° 332° (NNW) 2,195 9.8 19.7°
Maximum altitude 07:05:44 33° 37° (NE) 1,492 10.0 20.8°
Drops below altitude 10° 07:12:30 10° 98° (E) 3,300 12.2 22.4°
Sets 07:16:35 0° 107° (ESE) 4,709 12.5 23.4°
